Canby, MN

3:18 AM CST on February 20, 2017 (GMT -0600)
Canby

Weather History for KCNB - March, 2014

Change the Weather History Date:

Friday, March 21, 2014

  Actual Average (KMML) Record (KMML)
Temperature  
Mean Temperature 30 °F -  
Max Temperature 40 °F 41 °F 63 °F (1985)
Min Temperature 19 °F 24 °F -7 °F (1951)
Degree Days  
Heating Degree Days 36    
Moisture  
Dew Point 27 °F    
Average Humidity 80    
Maximum Humidity 92    
Minimum Humidity 71    
Precipitation  
Precipitation 0.00 in - - ()
Sea Level Pressure  
Sea Level Pressure 29.95 in    
Wind  
Wind Speed 14 mph (NW)    
Max Wind Speed 30 mph    
Max Gust Speed 39 mph    
Visibility 10 miles    
Events      
Averages and records for this station are not official NWS values.
T = Trace of Precipitation, MM = Missing Value Source: NWS Daily Summary

Daily Weather History Graph

Daily Weather History Graph

Search for Another Location

Airport or City:

Trip Planner

Search our weather history database for the weather conditions in past years. The results will help you decide how hot, cold, wet, or windy it might be!

Date:

Astronomy

Mar. 21, 2014 Rise Set
Actual Time 7:26 AM CDT 7:38 PM CDT
Civil Twilight 6:57 AM CDT 8:08 PM CDT
Nautical Twilight 6:22 AM CDT 8:42 PM CDT
Astronomical Twilight 5:47 AM CDT 9:17 PM CDT
Moon 12:09 AM CDT (3/21) 10:07 AM CDT (3/21)
Length of Visible Light 13h 10m
Length of Day
12h 12m
Waning Gibbous, 75% of the Moon is Illuminated
Mar 21
Waning Gibbous
Mar 23
Last Quarter
Mar 30
New
Apr 7
First Quarter
Apr 15
Full

Hourly Weather History & Observations

Time (CDT) Temp. Windchill Dew Point Humidity Pressure Visibility Wind Dir Wind Speed Gust Speed Precip Events Conditions
12:14 AM 36.5 °F 29.7 °F 32.0 °F 84% 29.75 in 10.0 mi SE 9.2 mph - N/A   Clear
12:34 AM 36.5 °F 30.3 °F 32.2 °F 84% 29.75 in 10.0 mi SE 8.1 mph - N/A   Scattered Clouds
12:54 AM 37.4 °F 31.4 °F 32.0 °F 81% 29.75 in 10.0 mi ESE 8.1 mph - N/A   Scattered Clouds
1:14 AM 35.6 °F 29.9 °F 32.0 °F 87% 29.75 in 10.0 mi SE 6.9 mph - N/A   Scattered Clouds
1:34 AM 36.5 °F 31.0 °F 32.0 °F 84% 29.73 in 10.0 mi SE 6.9 mph - N/A   Mostly Cloudy
1:54 AM 40.1 °F 32.7 °F 32.0 °F 73% 29.74 in 10.0 mi South 12.7 mph 16.1 mph N/A   Overcast
2:14 AM 40.3 °F 32.2 °F 32.0 °F 72% 29.73 in 10.0 mi South 15.0 mph - N/A   Overcast
2:34 AM 40.1 °F 32.7 °F 31.8 °F 72% 29.73 in 10.0 mi South 12.7 mph 18.4 mph N/A   Overcast
2:54 AM 39.9 °F 33.4 °F 31.8 °F 73% 29.74 in 10.0 mi South 10.4 mph - N/A   Overcast
3:14 AM 39.2 °F 32.5 °F 32.0 °F 75% 29.80 in 10.0 mi West 10.4 mph - N/A   Overcast
3:34 AM 39.9 °F 33.4 °F 32.0 °F 73% 29.79 in 10.0 mi West 10.4 mph - N/A   Overcast
3:54 AM 39.4 °F 36.1 °F 32.0 °F 75% 29.76 in 10.0 mi South 4.6 mph - N/A   Overcast
4:14 AM 38.7 °F 35.2 °F 32.0 °F 77% 29.75 in 10.0 mi SSE 4.6 mph - N/A   Mostly Cloudy
4:34 AM 38.3 °F 34.8 °F 32.0 °F 78% 29.75 in 10.0 mi South 4.6 mph - N/A   Scattered Clouds
4:54 AM 37.8 °F 31.8 °F 32.0 °F 80% 29.74 in 10.0 mi South 8.1 mph - N/A   Scattered Clouds
5:15 AM 36.5 °F 30.3 °F 32.0 °F 84% 29.72 in 10.0 mi SSE 8.1 mph - N/A   Scattered Clouds
5:34 AM 34.3 °F 28.4 °F 31.5 °F 89% 29.71 in 10.0 mi SSE 6.9 mph - N/A   Scattered Clouds
5:54 AM 34.9 °F 29.9 °F 31.6 °F 88% 29.71 in 10.0 mi South 5.8 mph - N/A   Mostly Cloudy
6:14 AM 35.2 °F 32.4 °F 31.8 °F 87% 29.72 in 10.0 mi WSW 3.5 mph - N/A   Mostly Cloudy
6:34 AM 36.3 °F 30.1 °F 32.0 °F 84% 29.73 in 10.0 mi West 8.1 mph - N/A   Overcast
6:55 AM 36.5 °F 29.7 °F 32.0 °F 84% 29.73 in 10.0 mi WSW 9.2 mph - N/A   Overcast
7:14 AM 36.1 °F 28.7 °F 32.2 °F 86% 29.74 in 10.0 mi West 10.4 mph - N/A   Scattered Clouds
7:34 AM 36.5 °F 29.7 °F 32.9 °F 87% 29.75 in 10.0 mi West 9.2 mph - N/A   Mostly Cloudy
7:55 AM 36.5 °F 31.0 °F 33.3 °F 88% 29.75 in 10.0 mi West 6.9 mph - N/A   Scattered Clouds
8:14 AM 37.4 °F 30.3 °F 34.2 °F 88% 29.75 in 10.0 mi West 10.4 mph - N/A   Clear
8:35 AM 37.9 °F 30.5 °F 34.2 °F 86% 29.75 in 10.0 mi West 11.5 mph - N/A   Clear
8:54 AM 39.4 °F 31.8 °F 34.3 °F 82% 29.77 in 10.0 mi WNW 12.7 mph 16.1 mph N/A   Clear
9:14 AM 39.6 °F 31.7 °F 34.7 °F 83% 29.77 in 10.0 mi WNW 13.8 mph - N/A   Scattered Clouds
9:35 AM 40.1 °F 31.3 °F 34.2 °F 79% 29.78 in 10.0 mi NW 17.3 mph 24.2 mph N/A   Scattered Clouds
9:54 AM 40.1 °F 31.3 °F 34.5 °F 80% 29.80 in 10.0 mi NW 17.3 mph 28.8 mph N/A   Mostly Cloudy
10:14 AM 38.8 °F 29.1 °F 34.2 °F 83% 29.82 in 10.0 mi WNW 19.6 mph 25.3 mph N/A   Overcast
10:35 AM 36.0 °F 26.7 °F 33.8 °F 92% 29.83 in 10.0 mi NW 15.0 mph 21.9 mph N/A   Overcast
10:54 AM 36.3 °F 25.5 °F 33.8 °F 91% 29.84 in 10.0 mi NNW 20.7 mph 26.5 mph N/A   Overcast
11:14 AM 35.8 °F 24.8 °F 32.2 °F 87% 29.86 in 10.0 mi NW 20.7 mph 31.1 mph N/A   Overcast
11:35 AM 35.4 °F 23.5 °F 31.8 °F 87% 29.88 in 10.0 mi NW 24.2 mph 31.1 mph N/A   Overcast
11:54 AM 34.7 °F 23.4 °F 31.5 °F 88% 29.89 in 10.0 mi NW 20.7 mph 28.8 mph N/A   Overcast
12:14 PM 34.0 °F 22.1 °F 30.4 °F 87% 29.91 in 10.0 mi NNW 21.9 mph 28.8 mph N/A   Overcast
12:34 PM 33.1 °F 20.1 °F 29.5 °F 87% 29.92 in 10.0 mi NNW 25.3 mph 33.4 mph N/A   Overcast
12:55 PM 33.3 °F 21.2 °F 29.3 °F 85% 29.94 in 10.0 mi NNW 21.9 mph 29.9 mph N/A   Overcast
1:14 PM 34.0 °F 21.3 °F 29.5 °F 84% 29.95 in 10.0 mi NNW 25.3 mph 32.2 mph N/A   Overcast
1:34 PM 35.1 °F 22.5 °F 30.0 °F 82% 29.95 in 10.0 mi NNW 26.5 mph 32.2 mph N/A   Overcast
1:54 PM 36.0 °F 24.7 °F 30.0 °F 79% 29.96 in 10.0 mi NNW 21.9 mph 31.1 mph N/A   Mostly Cloudy
2:14 PM 36.5 °F 25.4 °F 29.1 °F 75% 29.97 in 10.0 mi NNW 21.9 mph 34.5 mph N/A   Mostly Cloudy
2:34 PM 36.7 °F 24.4 °F 29.1 °F 74% 29.98 in 10.0 mi NNW 27.6 mph 34.5 mph N/A   Mostly Cloudy
2:55 PM 35.8 °F 23.2 °F 27.9 °F 73% 30.00 in 10.0 mi NNW 27.6 mph 39.1 mph N/A   Mostly Cloudy
3:14 PM 35.1 °F 22.0 °F 28.0 °F 76% 30.02 in 10.0 mi NNW 28.8 mph 35.7 mph N/A   Mostly Cloudy
3:34 PM 33.8 °F 21.3 °F 27.3 °F 77% 30.03 in 10.0 mi NNW 24.2 mph 35.7 mph N/A   Mostly Cloudy
3:55 PM 33.4 °F 20.6 °F 27.0 °F 77% 30.05 in 10.0 mi NNW 25.3 mph 34.5 mph N/A   Mostly Cloudy
4:14 PM 31.1 °F 16.4 °F 24.6 °F 77% 30.06 in 10.0 mi NNW 29.9 mph 36.8 mph N/A   Overcast
4:34 PM 30.7 °F 16.7 °F 24.4 °F 77% 30.07 in 10.0 mi NNW 26.5 mph 36.8 mph N/A   Overcast
4:54 PM 30.4 °F 15.7 °F 24.4 °F 79% 30.09 in 10.0 mi NNW 28.8 mph 35.7 mph N/A   Overcast
5:14 PM 30.0 °F 15.4 °F 24.1 °F 79% 30.10 in 10.0 mi NNW 27.6 mph 35.7 mph N/A   Overcast
5:34 PM 29.1 °F 15.7 °F 23.5 °F 80% 30.11 in 10.0 mi NNW 21.9 mph 32.2 mph N/A   Overcast
5:54 PM 28.4 °F 13.8 °F 22.8 °F 80% 30.12 in 10.0 mi NNW 25.3 mph 31.1 mph N/A   Overcast
6:15 PM 27.5 °F 12.9 °F 21.6 °F 78% 30.13 in 10.0 mi NNW 24.2 mph 33.4 mph N/A   Overcast
6:35 PM 27.3 °F 12.7 °F 21.2 °F 78% 30.14 in 10.0 mi NNW 24.2 mph 33.4 mph N/A   Overcast
6:54 PM 27.0 °F 13.9 °F 20.1 °F 75% 30.16 in 10.0 mi NNW 18.4 mph 29.9 mph N/A   Overcast
7:14 PM 26.6 °F 13.1 °F 20.1 °F 77% 30.17 in 10.0 mi NNW 19.6 mph 26.5 mph N/A   Mostly Cloudy
7:34 PM 26.4 °F 13.2 °F 18.9 °F 73% 30.18 in 10.0 mi NNW 18.4 mph 28.8 mph N/A   Mostly Cloudy
7:54 PM 25.7 °F 12.3 °F 18.1 °F 73% 30.19 in 10.0 mi NNW 18.4 mph 28.8 mph N/A   Mostly Cloudy
8:14 PM 25.0 °F 10.9 °F 18.1 °F 75% 30.21 in 10.0 mi NNW 19.6 mph 25.3 mph N/A   Scattered Clouds
8:34 PM 24.6 °F 8.8 °F 16.7 °F 72% 30.23 in 10.0 mi NNW 25.3 mph 32.2 mph N/A   Scattered Clouds
8:54 PM 23.9 °F 9.5 °F 15.8 °F 71% 30.24 in 10.0 mi NNW 19.6 mph 27.6 mph N/A   Scattered Clouds
9:14 PM 23.0 °F 8.0 °F 14.9 °F 71% 30.26 in 10.0 mi NNW 20.7 mph 31.1 mph N/A   Clear
9:34 PM 22.6 °F 7.9 °F 14.7 °F 72% 30.27 in 10.0 mi NNW 19.6 mph 27.6 mph N/A   Clear
9:55 PM 22.1 °F 8.0 °F 14.7 °F 73% 30.28 in 10.0 mi NNW 17.3 mph 26.5 mph N/A   Clear
10:14 PM 21.4 °F 7.1 °F 13.8 °F 73% 30.29 in 10.0 mi NNW 17.3 mph 25.3 mph N/A   Clear
10:34 PM 20.8 °F 5.9 °F 13.5 °F 73% 30.30 in 10.0 mi NNW 18.4 mph 26.5 mph N/A   Clear
10:54 PM 20.3 °F 5.7 °F 13.6 °F 75% 30.30 in 10.0 mi NNW 17.3 mph 25.3 mph N/A   Clear
11:15 PM 19.8 °F 5.9 °F 13.1 °F 75% 30.31 in 10.0 mi NNW 15.0 mph 24.2 mph N/A   Clear
11:34 PM 19.4 °F 4.1 °F 13.1 °F 76% 30.32 in 10.0 mi NNW 18.4 mph 24.2 mph N/A   Clear
11:54 PM 19.0 °F 2.4 °F 12.0 °F 74% 30.32 in 10.0 mi NNW 21.9 mph 26.5 mph N/A   Clear